Вернуться в каталог

COSMOS 1540

АктивенНавигацияGEO
NORAD 14783·PAYLOAD·🇷🇺 Russia

Запущен Mar 2, 1984 с Baikonur Cosmodrome

Loading…

TLE

СвежийSource: Space-Track

Эпоха: Sep 14, 2026, 15:53 UTC

1 14783U 84022A   26257.66220140 -.00000151  00000-0  00000-0 0  9990
2 14783   9.1340 303.7183 0008654 291.7911  76.2199  1.00278737121924

Отслеживайте COSMOS 1540 в реальном времени с AllMySat

Download on the App Store